Weather History for Nimes, France

Change the Weather History Date:

Monday, April 14, 2014

  Actual Average Record
Temperature  
Mean Temperature 66 °F -  
Max Temperature 77 °F 67 °F 77 °F (2014)
Min Temperature 54 °F 50 °F 32 °F (1998)
Growing Degree Days 16 (Base 50)    
Moisture  
Dew Point 38 °F    
Average Humidity 35    
Maximum Humidity 51    
Minimum Humidity 14    
Precipitation  
Precipitation 0.00 in - - ()
Sea Level Pressure  
Sea Level Pressure 30.03 in    
Wind  
Wind Speed 9 mph ()    
Max Wind Speed 17 mph    
Max Gust Speed 20 mph    
Visibility 7.3 miles    
Events      
Averages and records for this station are not official NWS values.
T = Trace of Precipitation, MM = Missing Value Source: Averaged Metar Reports

Daily Weather History Graph

Daily Weather History Graph

Search for Another Location

Airport:

Trip Planner

Search our weather history database for the weather conditions in past years. The results will help you decide how hot, cold, wet, or windy it might be!

Date:

Astronomy

Apr. 14, 2014 Rise Set
Actual Time 7:01 AM CEST 8:24 PM CEST
Civil Twilight 6:31 AM CEST 8:54 PM CEST
Nautical Twilight 5:55 AM CEST 9:30 PM CEST
Astronomical Twilight 5:17 AM CEST 10:08 PM CEST
Moon 7:46 PM CEST (4/14) 6:26 AM CEST (4/14)
Length of Visible Light 14h 22m
Length of Day
13h 22m
Waxing Gibbous, 99% of the Moon is Illuminated
Apr 14
Waxing Gibbous
Apr 15
Full
Apr 22
Last Quarter
Apr 29
New
May 7
First Quarter

Hourly Weather History & Observations

Time (CEST) Temp. Dew Point Humidity Pressure Visibility Wind Dir Wind Speed Gust Speed Precip Events Conditions
12:00 AM 60 °F 37 °F 31% 30.07 in 37 mi North 8.1 mph - -   Clear
12:00 AM 60.8 °F 37.4 °F 42% 30.06 in 6.2 mi North 8.1 mph - N/A   Unknown
12:30 AM 59.0 °F 37.4 °F 45% 30.06 in 6.2 mi NNW 8.1 mph - N/A   Unknown
1:00 AM 57 °F 37 °F 35% 30.08 in 37 mi NW 5.8 mph - -   Clear
1:00 AM 57.2 °F 37.4 °F 48% 30.06 in 6.2 mi NW 5.8 mph - N/A   Unknown
1:30 AM 55.4 °F 35.6 °F 47% 30.06 in 6.2 mi NNW 3.5 mph - N/A   Unknown
2:00 AM 56 °F 34 °F 31% 30.08 in 37 mi North 5.8 mph - -   Clear
2:00 AM 55.4 °F 33.8 °F 44% 30.06 in 6.2 mi North 5.8 mph - N/A   Unknown
2:30 AM 55.4 °F 33.8 °F 44% 30.06 in 6.2 mi NNW 5.8 mph - N/A   Unknown
3:00 AM 57 °F 35 °F 32% 30.07 in 37 mi North 10.4 mph - -   Clear
3:00 AM 57.2 °F 35.6 °F 44% 30.06 in 6.2 mi North 10.4 mph - N/A   Unknown
3:30 AM 59.0 °F 35.6 °F 42% 30.06 in 6.2 mi North 4.6 mph - N/A   Unknown
4:00 AM 57 °F 36 °F 33% 30.07 in 37 mi NNW 6.9 mph - -   Clear
4:00 AM 57.2 °F 35.6 °F 44% 30.06 in 6.2 mi NNW 6.9 mph - N/A   Unknown
4:30 AM 57.2 °F 35.6 °F 44% 30.06 in 6.2 mi NNW 8.1 mph - N/A   Unknown
5:00 AM 57 °F 35 °F 32% 30.08 in 37 mi NNW 5.8 mph - -   Clear
5:00 AM 57.2 °F 35.6 °F 44% 30.06 in 6.2 mi NNW 5.8 mph - N/A   Unknown
5:30 AM 55.4 °F 35.6 °F 47% 30.06 in 6.2 mi NNW 4.6 mph - N/A   Unknown
6:00 AM 56 °F 35 °F 34% 30.08 in 37 mi North 9.2 mph - -   Clear
6:00 AM 55.4 °F 35.6 °F 47% 30.06 in 6.2 mi North 9.2 mph - N/A   Unknown
6:30 AM 55.4 °F 35.6 °F 47% 30.06 in 6.2 mi North 6.9 mph - N/A   Unknown
7:00 AM 54 °F 36 °F 38% 30.09 in 37 mi North 8.1 mph - -   Clear
7:00 AM 53.6 °F 35.6 °F 51% 30.06 in 6.2 mi North 8.1 mph - N/A   Unknown
7:30 AM 55.4 °F 35.6 °F 47% 30.06 in 6.2 mi North 6.9 mph - N/A   Unknown
8:00 AM 56 °F 37 °F 37% 30.10 in 12 mi North 12.7 mph - -   Clear
8:00 AM 57.2 °F 37.4 °F 48% 30.09 in 6.2 mi North 12.7 mph - N/A   Unknown
8:30 AM 59.0 °F 39.2 °F 48% 30.09 in 6.2 mi North 10.4 mph - N/A   Unknown
9:00 AM 61 °F 39 °F 33% 30.10 in 12 mi North 12.7 mph - -   Clear
9:00 AM 60.8 °F 39.2 °F 45% 30.09 in 6.2 mi North 12.7 mph - N/A   Unknown
9:30 AM 62.6 °F 39.2 °F 42% 30.06 in 6.2 mi North 15.0 mph - N/A   Unknown
10:00 AM 64 °F 40 °F 30% 30.08 in 12 mi North 16.1 mph - -   Clear
10:00 AM 64.4 °F 41.0 °F 42% 30.06 in 6.2 mi North 16.1 mph - N/A   Unknown
10:30 AM 64.4 °F 41.0 °F 42% 30.06 in 6.2 mi North 17.3 mph - N/A   Unknown
11:00 AM 66 °F 40 °F 28% 30.09 in 12 mi NNE 17.3 mph - -   Clear
11:00 AM 66.2 °F 41.0 °F 40% 30.06 in 6.2 mi NNE 17.3 mph - N/A   Unknown
11:30 AM 68.0 °F 41.0 °F 37% 30.06 in 6.2 mi NNE 16.1 mph - N/A   Unknown
12:00 PM 69 °F 42 °F 27% 30.08 in 12 mi North 12.7 mph - -   Clear
12:00 PM 69.8 °F 42.8 °F 38% 30.06 in 6.2 mi North 12.7 mph - N/A   Unknown
12:30 PM 69.8 °F 41.0 °F 35% 30.06 in 6.2 mi NNE 13.8 mph - N/A   Unknown
1:00 PM 71 °F 41 °F 23% 30.06 in 12 mi North 13.8 mph - -   Clear
1:00 PM 71.6 °F 41.0 °F 33% 30.04 in 6.2 mi North 13.8 mph - N/A   Unknown
1:30 PM 73.4 °F 41.0 °F 31% 30.04 in 6.2 mi NNE 13.8 mph - N/A   Unknown
2:00 PM 73 °F 39 °F 19% 30.03 in 12 mi North 11.5 mph - -   Clear
2:00 PM 73.4 °F 39.2 °F 29% 30.04 in 6.2 mi North 11.5 mph - N/A   Unknown
2:30 PM 75.2 °F 39.2 °F 27% 30.01 in 6.2 mi North 10.4 mph - N/A   Unknown
3:00 PM 75 °F 38 °F 16% 30.01 in 12 mi North 8.1 mph - -   Clear
3:00 PM 75.2 °F 37.4 °F 25% 30.01 in 6.2 mi North 8.1 mph 19.6 mph N/A   Unknown
3:30 PM 77.0 °F 35.6 °F 22% 30.01 in 6.2 mi North 10.4 mph - N/A   Unknown
4:00 PM 77 °F 37 °F 14% 29.99 in 12 mi North 11.5 mph - -   Clear
4:00 PM 77.0 °F 37.4 °F 24% 29.98 in 6.2 mi North 11.5 mph - N/A   Unknown
4:30 PM 77.0 °F 37.4 °F 24% 29.98 in 6.2 mi North 11.5 mph - N/A   Unknown
5:00 PM 77 °F 38 °F 15% 29.96 in 12 mi North 9.2 mph - -   Clear
5:00 PM 77.0 °F 37.4 °F 24% 29.98 in 6.2 mi North 9.2 mph - N/A   Unknown
5:30 PM 77.0 °F 41.0 °F 28% 29.95 in 6.2 mi NNE 10.4 mph - N/A   Unknown
6:00 PM 76 °F 43 °F 20% 29.95 in 12 mi NNE 11.5 mph - -   Clear
6:00 PM 75.2 °F 42.8 °F 31% 29.95 in 6.2 mi NNE 11.5 mph - N/A   Unknown
6:30 PM 73.4 °F 42.8 °F 33% 29.95 in 6.2 mi NNE 12.7 mph - N/A   Unknown
7:00 PM 72 °F 42 °F 22% 29.95 in 34 mi NNE 12.7 mph - -   Clear
7:00 PM 71.6 °F 41.0 °F 33% 29.95 in 6.2 mi NNE 12.7 mph - N/A   Unknown
7:30 PM 69.8 °F 41.0 °F 35% 29.95 in 6.2 mi NNE 11.5 mph - N/A   Unknown
8:00 PM 68 °F 40 °F 24% 29.96 in 34 mi North 12.7 mph - -   Clear
8:00 PM 68.0 °F 39.2 °F 35% 29.95 in 6.2 mi North 12.7 mph - N/A   Unknown
8:30 PM 66.2 °F 35.6 °F 32% 29.98 in 6.2 mi North 12.7 mph - N/A   Unknown
9:00 PM 65 °F 36 °F 23% 29.99 in 37 mi North 6.9 mph - -   Clear
9:00 PM 64.4 °F 35.6 °F 34% 29.98 in 6.2 mi North 6.9 mph - N/A   Unknown
9:30 PM 62.6 °F 35.6 °F 37% 29.98 in 6.2 mi North 5.8 mph - N/A   Unknown
10:00 PM 63 °F 36 °F 24% 29.99 in 37 mi NNW 5.8 mph - -   Clear
10:00 PM 62.6 °F 35.6 °F 37% 29.98 in 6.2 mi NNW 5.8 mph - N/A   Unknown
10:30 PM 62.6 °F 37.4 °F 39% 29.98 in 6.2 mi NNE 12.7 mph - N/A   Unknown
11:00 PM 63 °F 38 °F 28% 29.99 in 37 mi NNE 15.0 mph - -   Clear
11:00 PM 62.6 °F 37.4 °F 39% 29.98 in 6.2 mi NNE 15.0 mph - N/A   Unknown
11:30 PM 62.6 °F 39.2 °F 42% 29.98 in 6.2 mi NNE 13.8 mph - N/A   Unknown